owner,sensor,date,latitude,longitude,relative_humidity,qcFlag 
COMPS,ioos:station:USF.COMPS:CAM:1,2013-12-03T16:00:00Z,27.7650,-82.6490,70.71,1111122 
COMPS,ioos:station:USF.COMPS:CAM:1,2013-12-03T16:06:00Z,27.7650,-82.6490,70.85,1111122 
COMPS,ioos:station:USF.COMPS:CAM:1,2013-12-03T16:12:00Z,27.7650,-82.6490,70.31,1111122 
COMPS,ioos:station:USF.COMPS:CAM:1,2013-12-03T16:18:00Z,27.7650,-82.6490,69.06,1111122 
COMPS,ioos:station:USF.COMPS:CAM:1,2013-12-03T16:24:00Z,27.7650,-82.6490,68.77,1111122 
COMPS,ioos:station:USF.COMPS:CAM:1,2013-12-03T16:30:00Z,27.7650,-82.6490,68.63,1111122 
COMPS,ioos:station:USF.COMPS:CAM:1,2013-12-03T16:36:00Z,27.7650,-82.6490,69.16,1111122 
COMPS,ioos:station:USF.COMPS:CAM:1,2013-12-03T16:42:00Z,27.7650,-82.6490,67.78,1111122 
COMPS,ioos:station:USF.COMPS:CAM:1,2013-12-03T16:48:00Z,27.7650,-82.6490,67.41,1111122 
COMPS,ioos:station:USF.COMPS:CAM:1,2013-12-03T16:54:00Z,27.7650,-82.6490,65.6,1111122 
COMPS,ioos:station:USF.COMPS:CAM:1,2013-12-03T17:00:00Z,27.7650,-82.6490,66.9,1111122 
COMPS,ioos:station:USF.COMPS:CAM:1,2013-12-03T17:06:00Z,27.7650,-82.6490,67.3,1111122 
COMPS,ioos:station:USF.COMPS:CAM:1,2013-12-03T17:12:00Z,27.7650,-82.6490,67.18,1111122 
COMPS,ioos:station:USF.COMPS:CAM:1,2013-12-03T17:18:00Z,27.7650,-82.6490,66.62,1111122 
COMPS,ioos:station:USF.COMPS:CAM:1,2013-12-03T17:24:00Z,27.7650,-82.6490,66.73,1111122 
COMPS,ioos:station:USF.COMPS:CAM:1,2013-12-03T17:30:00Z,27.7650,-82.6490,66.65,1111122 
COMPS,ioos:station:USF.COMPS:CAM:1,2013-12-03T17:36:00Z,27.7650,-82.6490,65.76,1111122 
COMPS,ioos:station:USF.COMPS:CAM:1,2013-12-03T17:42:00Z,27.7650,-82.6490,65.99,1111122 
COMPS,ioos:station:USF.COMPS:CAM:1,2013-12-03T17:48:00Z,27.7650,-82.6490,63.7,1111122 
COMPS,ioos:station:USF.COMPS:CAM:1,2013-12-03T17:54:00Z,27.7650,-82.6490,62.1,1111122 
COMPS,ioos:station:USF.COMPS:CAM:1,2013-12-03T18:00:00Z,27.7650,-82.6490,63.7,1111122 
COMPS,ioos:station:USF.COMPS:CAM:1,2013-12-03T18:06:00Z,27.7650,-82.6490,64.59,1111122 
COMPS,ioos:station:USF.COMPS:CAM:1,2013-12-03T18:12:00Z,27.7650,-82.6490,64.25,1111122 
COMPS,ioos:station:USF.COMPS:CAM:1,2013-12-03T18:18:00Z,27.7650,-82.6490,63.71,1111122 
COMPS,ioos:station:USF.COMPS:CAM:1,2013-12-03T18:24:00Z,27.7650,-82.6490,64.23,1111122 
COMPS,ioos:station:USF.COMPS:CAM:1,2013-12-03T18:30:00Z,27.7650,-82.6490,63.78,1111122 
COMPS,ioos:station:USF.COMPS:CAM:1,2013-12-03T18:36:00Z,27.7650,-82.6490,62.84,1111122 
COMPS,ioos:station:USF.COMPS:CAM:1,2013-12-03T18:42:00Z,27.7650,-82.6490,62.06,1111122 
COMPS,ioos:station:USF.COMPS:CAM:1,2013-12-03T18:48:00Z,27.7650,-82.6490,62.01,1111122 
COMPS,ioos:station:USF.COMPS:CAM:1,2013-12-03T18:54:00Z,27.7650,-82.6490,61.4,1111122 
COMPS,ioos:station:USF.COMPS:CAM:1,2013-12-03T19:00:00Z,27.7650,-82.6490,62.18,1111122 
COMPS,ioos:station:USF.COMPS:CAM:1,2013-12-03T19:06:00Z,27.7650,-82.6490,63.07,1111122 
COMPS,ioos:station:USF.COMPS:CAM:1,2013-12-03T19:12:00Z,27.7650,-82.6490,62.69,1111122 
COMPS,ioos:station:USF.COMPS:CAM:1,2013-12-03T19:18:00Z,27.7650,-82.6490,64.2,1111122 
COMPS,ioos:station:USF.COMPS:CAM:1,2013-12-03T19:24:00Z,27.7650,-82.6490,65.23,1111122 
COMPS,ioos:station:USF.COMPS:CAM:1,2013-12-03T19:30:00Z,27.7650,-82.6490,65.01,1111122 
COMPS,ioos:station:USF.COMPS:CAM:1,2013-12-03T19:36:00Z,27.7650,-82.6490,64.51,1111122 
COMPS,ioos:station:USF.COMPS:CAM:1,2013-12-03T19:42:00Z,27.7650,-82.6490,64.43,1111122 
COMPS,ioos:station:USF.COMPS:CAM:1,2013-12-03T19:48:00Z,27.7650,-82.6490,64.38,1111122 
COMPS,ioos:station:USF.COMPS:CAM:1,2013-12-03T19:54:00Z,27.7650,-82.6490,64.3,1111122 
COMPS,ioos:station:USF.COMPS:CAM:1,2013-12-03T20:00:00Z,27.7650,-82.6490,65.39,1111122 
COMPS,ioos:station:USF.COMPS:CAM:1,2013-12-03T20:06:00Z,27.7650,-82.6490,66.13,1111122 
COMPS,ioos:station:USF.COMPS:CAM:1,2013-12-03T20:12:00Z,27.7650,-82.6490,65.9,1111122 
COMPS,ioos:station:USF.COMPS:CAM:1,2013-12-03T20:18:00Z,27.7650,-82.6490,65.98,1111122 
COMPS,ioos:station:USF.COMPS:CAM:1,2013-12-03T20:24:00Z,27.7650,-82.6490,65.66,1111122 
COMPS,ioos:station:USF.COMPS:CAM:1,2013-12-03T20:30:00Z,27.7650,-82.6490,64.96,1111122 
COMPS,ioos:station:USF.COMPS:CAM:1,2013-12-03T20:36:00Z,27.7650,-82.6490,65.98,1111122 
COMPS,ioos:station:USF.COMPS:CAM:1,2013-12-03T20:42:00Z,27.7650,-82.6490,67.48,1111122 
COMPS,ioos:station:USF.COMPS:CAM:1,2013-12-03T20:48:00Z,27.7650,-82.6490,68.28,1111122 
COMPS,ioos:station:USF.COMPS:CAM:1,2013-12-03T20:54:00Z,27.7650,-82.6490,69.4,1111122 
COMPS,ioos:station:USF.COMPS:CAM:1,2013-12-03T21:00:00Z,27.7650,-82.6490,72.3,1111122 
COMPS,ioos:station:USF.COMPS:CAM:1,2013-12-03T21:06:00Z,27.7650,-82.6490,75.01,1111122 
COMPS,ioos:station:USF.COMPS:CAM:1,2013-12-03T21:12:00Z,27.7650,-82.6490,77.6,1111122 
COMPS,ioos:station:USF.COMPS:CAM:1,2013-12-03T21:18:00Z,27.7650,-82.6490,78.83,1111122 
COMPS,ioos:station:USF.COMPS:CAM:1,2013-12-03T21:24:00Z,27.7650,-82.6490,79.46,1111122 
COMPS,ioos:station:USF.COMPS:CAM:1,2013-12-03T21:30:00Z,27.7650,-82.6490,79.66,1111122 
COMPS,ioos:station:USF.COMPS:CAM:1,2013-12-03T21:36:00Z,27.7650,-82.6490,79.97,1111122 
COMPS,ioos:station:USF.COMPS:CAM:1,2013-12-03T21:42:00Z,27.7650,-82.6490,80.05,1111122 
COMPS,ioos:station:USF.COMPS:CAM:1,2013-12-03T21:48:00Z,27.7650,-82.6490,80.41,1111122 
COMPS,ioos:station:USF.COMPS:CAM:1,2013-12-03T21:54:00Z,27.7650,-82.6490,80.58,1111122 
COMPS,ioos:station:USF.COMPS:CAM:1,2013-12-03T22:00:00Z,27.7650,-82.6490,80.9,1111122 
COMPS,ioos:station:USF.COMPS:CAM:1,2013-12-03T22:06:00Z,27.7650,-82.6490,81.29,1111122 
COMPS,ioos:station:USF.COMPS:CAM:1,2013-12-03T22:12:00Z,27.7650,-82.6490,81.47,1111122 
COMPS,ioos:station:USF.COMPS:CAM:1,2013-12-03T22:18:00Z,27.7650,-82.6490,81.64,1111122 
COMPS,ioos:station:USF.COMPS:CAM:1,2013-12-03T22:24:00Z,27.7650,-82.6490,81.84,1111122 
COMPS,ioos:station:USF.COMPS:CAM:1,2013-12-03T22:30:00Z,27.7650,-82.6490,82.17,1111122 
COMPS,ioos:station:USF.COMPS:CAM:1,2013-12-03T22:36:00Z,27.7650,-82.6490,82.43,1111122 
COMPS,ioos:station:USF.COMPS:CAM:1,2013-12-03T22:42:00Z,27.7650,-82.6490,82.63,1111122 
COMPS,ioos:station:USF.COMPS:CAM:1,2013-12-03T22:48:00Z,27.7650,-82.6490,82.74,1111122 
COMPS,ioos:station:USF.COMPS:CAM:1,2013-12-03T22:54:00Z,27.7650,-82.6490,82.68,1111122 
COMPS,ioos:station:USF.COMPS:CAM:1,2013-12-03T23:00:00Z,27.7650,-82.6490,82.58,1111122 
COMPS,ioos:station:USF.COMPS:CAM:1,2013-12-03T23:06:00Z,27.7650,-82.6490,82.61,1111122 
COMPS,ioos:station:USF.COMPS:CAM:1,2013-12-03T23:12:00Z,27.7650,-82.6490,82.73,1111122 
COMPS,ioos:station:USF.COMPS:CAM:1,2013-12-03T23:18:00Z,27.7650,-82.6490,83.08,1111122 
COMPS,ioos:station:USF.COMPS:CAM:1,2013-12-03T23:24:00Z,27.7650,-82.6490,83.23,1111122 
COMPS,ioos:station:USF.COMPS:CAM:1,2013-12-03T23:30:00Z,27.7650,-82.6490,83.51,1111122 
COMPS,ioos:station:USF.COMPS:CAM:1,2013-12-03T23:36:00Z,27.7650,-82.6490,83.86,1111122 
COMPS,ioos:station:USF.COMPS:CAM:1,2013-12-03T23:42:00Z,27.7650,-82.6490,84.33,1111122 
COMPS,ioos:station:USF.COMPS:CAM:1,2013-12-03T23:48:00Z,27.7650,-82.6490,84.78,1111122 
COMPS,ioos:station:USF.COMPS:CAM:1,2013-12-03T23:54:00Z,27.7650,-82.6490,85.07,1111122 
COMPS,ioos:station:USF.COMPS:CAM:1,2013-12-04T00:00:00Z,27.7650,-82.6490,85.26,1111122 
COMPS,ioos:station:USF.COMPS:CAM:1,2013-12-04T00:06:00Z,27.7650,-82.6490,85.48,1111122 
COMPS,ioos:station:USF.COMPS:CAM:1,2013-12-04T00:12:00Z,27.7650,-82.6490,85.49,1111122 
COMPS,ioos:station:USF.COMPS:CAM:1,2013-12-04T00:18:00Z,27.7650,-82.6490,85.59,1111122 
COMPS,ioos:station:USF.COMPS:CAM:1,2013-12-04T00:24:00Z,27.7650,-82.6490,85.85,1111122 
COMPS,ioos:station:USF.COMPS:CAM:1,2013-12-04T00:30:00Z,27.7650,-82.6490,86.21,1111122 
COMPS,ioos:station:USF.COMPS:CAM:1,2013-12-04T00:36:00Z,27.7650,-82.6490,86.52,1111122 
COMPS,ioos:station:USF.COMPS:CAM:1,2013-12-04T00:42:00Z,27.7650,-82.6490,86.77,1111122 
COMPS,ioos:station:USF.COMPS:CAM:1,2013-12-04T00:48:00Z,27.7650,-82.6490,86.98,1111122 
COMPS,ioos:station:USF.COMPS:CAM:1,2013-12-04T00:54:00Z,27.7650,-82.6490,87.17,1111122 
COMPS,ioos:station:USF.COMPS:CAM:1,2013-12-04T01:00:00Z,27.7650,-82.6490,87.39,1111122 
COMPS,ioos:station:USF.COMPS:CAM:1,2013-12-04T01:06:00Z,27.7650,-82.6490,87.71,1111122 
COMPS,ioos:station:USF.COMPS:CAM:1,2013-12-04T01:12:00Z,27.7650,-82.6490,87.99,1111122 
COMPS,ioos:station:USF.COMPS:CAM:1,2013-12-04T01:18:00Z,27.7650,-82.6490,88.21,1111122 
COMPS,ioos:station:USF.COMPS:CAM:1,2013-12-04T01:24:00Z,27.7650,-82.6490,88.25,1111122 
COMPS,ioos:station:USF.COMPS:CAM:1,2013-12-04T01:30:00Z,27.7650,-82.6490,88.37,1111122 
COMPS,ioos:station:USF.COMPS:CAM:1,2013-12-04T01:36:00Z,27.7650,-82.6490,88.43,1111122 
COMPS,ioos:station:USF.COMPS:CAM:1,2013-12-04T01:42:00Z,27.7650,-82.6490,88.56,1111122 
COMPS,ioos:station:USF.COMPS:CAM:1,2013-12-04T01:48:00Z,27.7650,-82.6490,88.72,1111122 
COMPS,ioos:station:USF.COMPS:CAM:1,2013-12-04T01:54:00Z,27.7650,-82.6490,88.85,1111122 
COMPS,ioos:station:USF.COMPS:CAM:1,2013-12-04T02:00:00Z,27.7650,-82.6490,88.84,1111122 
COMPS,ioos:station:USF.COMPS:CAM:1,2013-12-04T02:06:00Z,27.7650,-82.6490,88.73,1111122 
COMPS,ioos:station:USF.COMPS:CAM:1,2013-12-04T02:12:00Z,27.7650,-82.6490,88.66,1111122 
COMPS,ioos:station:USF.COMPS:CAM:1,2013-12-04T02:18:00Z,27.7650,-82.6490,88.65,1111122 
COMPS,ioos:station:USF.COMPS:CAM:1,2013-12-04T02:24:00Z,27.7650,-82.6490,88.71,1111122 
COMPS,ioos:station:USF.COMPS:CAM:1,2013-12-04T02:30:00Z,27.7650,-82.6490,88.81,1111122 
COMPS,ioos:station:USF.COMPS:CAM:1,2013-12-04T02:36:00Z,27.7650,-82.6490,88.78,1111122 
COMPS,ioos:station:USF.COMPS:CAM:1,2013-12-04T02:42:00Z,27.7650,-82.6490,88.87,1111122 
COMPS,ioos:station:USF.COMPS:CAM:1,2013-12-04T02:48:00Z,27.7650,-82.6490,88.88,1111122 
COMPS,ioos:station:USF.COMPS:CAM:1,2013-12-04T02:54:00Z,27.7650,-82.6490,89.01,1111122 
COMPS,ioos:station:USF.COMPS:CAM:1,2013-12-04T03:00:00Z,27.7650,-82.6490,89.07,1111122 
COMPS,ioos:station:USF.COMPS:CAM:1,2013-12-04T03:06:00Z,27.7650,-82.6490,89.16,1111122 
COMPS,ioos:station:USF.COMPS:CAM:1,2013-12-04T03:12:00Z,27.7650,-82.6490,89.31,1111122 
COMPS,ioos:station:USF.COMPS:CAM:1,2013-12-04T03:18:00Z,27.7650,-82.6490,89.45,1111122 
COMPS,ioos:station:USF.COMPS:CAM:1,2013-12-04T03:24:00Z,27.7650,-82.6490,89.56,1111122 
COMPS,ioos:station:USF.COMPS:CAM:1,2013-12-04T03:30:00Z,27.7650,-82.6490,89.75,1111122 
COMPS,ioos:station:USF.COMPS:CAM:1,2013-12-04T03:36:00Z,27.7650,-82.6490,89.86,1111122 
COMPS,ioos:station:USF.COMPS:CAM:1,2013-12-04T03:42:00Z,27.7650,-82.6490,90.11,1111122 
COMPS,ioos:station:USF.COMPS:CAM:1,2013-12-04T03:48:00Z,27.7650,-82.6490,90.22,1111122 
COMPS,ioos:station:USF.COMPS:CAM:1,2013-12-04T03:54:00Z,27.7650,-82.6490,90.37,1111122 
COMPS,ioos:station:USF.COMPS:CAM:1,2013-12-04T04:00:00Z,27.7650,-82.6490,90.42,1111122 
COMPS,ioos:station:USF.COMPS:CAM:1,2013-12-04T04:06:00Z,27.7650,-82.6490,90.44,1111122 
COMPS,ioos:station:USF.COMPS:CAM:1,2013-12-04T04:12:00Z,27.7650,-82.6490,90.4,1111122 
COMPS,ioos:station:USF.COMPS:CAM:1,2013-12-04T04:18:00Z,27.7650,-82.6490,90.29,1111122 
COMPS,ioos:station:USF.COMPS:CAM:1,2013-12-04T04:24:00Z,27.7650,-82.6490,90.21,1111122 
COMPS,ioos:station:USF.COMPS:CAM:1,2013-12-04T04:30:00Z,27.7650,-82.6490,89.94,1111122 
COMPS,ioos:station:USF.COMPS:CAM:1,2013-12-04T04:36:00Z,27.7650,-82.6490,89.69,1111122 
COMPS,ioos:station:USF.COMPS:CAM:1,2013-12-04T04:42:00Z,27.7650,-82.6490,89.51,1111122 
COMPS,ioos:station:USF.COMPS:CAM:1,2013-12-04T04:48:00Z,27.7650,-82.6490,89.38,1111122 
COMPS,ioos:station:USF.COMPS:CAM:1,2013-12-04T04:54:00Z,27.7650,-82.6490,89.3,1111122 
COMPS,ioos:station:USF.COMPS:CAM:1,2013-12-04T05:00:00Z,27.7650,-82.6490,89.3,1111122 
COMPS,ioos:station:USF.COMPS:CAM:1,2013-12-04T05:06:00Z,27.7650,-82.6490,89.31,1111122 
COMPS,ioos:station:USF.COMPS:CAM:1,2013-12-04T05:12:00Z,27.7650,-82.6490,89.23,1111122 
COMPS,ioos:station:USF.COMPS:CAM:1,2013-12-04T05:18:00Z,27.7650,-82.6490,89.05,1111122 
COMPS,ioos:station:USF.COMPS:CAM:1,2013-12-04T05:24:00Z,27.7650,-82.6490,89.02,1111122 
COMPS,ioos:station:USF.COMPS:CAM:1,2013-12-04T05:30:00Z,27.7650,-82.6490,89.17,1111122 
COMPS,ioos:station:USF.COMPS:CAM:1,2013-12-04T05:36:00Z,27.7650,-82.6490,89.39,1111122 
COMPS,ioos:station:USF.COMPS:CAM:1,2013-12-04T05:42:00Z,27.7650,-82.6490,89.7,1111122 
COMPS,ioos:station:USF.COMPS:CAM:1,2013-12-04T05:48:00Z,27.7650,-82.6490,90.06,1111122 
COMPS,ioos:station:USF.COMPS:CAM:1,2013-12-04T05:54:00Z,27.7650,-82.6490,90.68,1111122 
COMPS,ioos:station:USF.COMPS:CAM:1,2013-12-04T06:00:00Z,27.7650,-82.6490,90.96,1111122 
COMPS,ioos:station:USF.COMPS:CAM:1,2013-12-04T06:06:00Z,27.7650,-82.6490,91.24,1111122 
COMPS,ioos:station:USF.COMPS:CAM:1,2013-12-04T06:12:00Z,27.7650,-82.6490,91.39,1111122 
COMPS,ioos:station:USF.COMPS:CAM:1,2013-12-04T06:18:00Z,27.7650,-82.6490,91.48,1111122 
COMPS,ioos:station:USF.COMPS:CAM:1,2013-12-04T06:24:00Z,27.7650,-82.6490,91.67,1111122 
COMPS,ioos:station:USF.COMPS:CAM:1,2013-12-04T06:30:00Z,27.7650,-82.6490,92.12,1111122 
COMPS,ioos:station:USF.COMPS:CAM:1,2013-12-04T06:36:00Z,27.7650,-82.6490,92.3,1111122 
COMPS,ioos:station:USF.COMPS:CAM:1,2013-12-04T06:42:00Z,27.7650,-82.6490,92.39,1111122 
COMPS,ioos:station:USF.COMPS:CAM:1,2013-12-04T06:48:00Z,27.7650,-82.6490,92.46,1111122 
COMPS,ioos:station:USF.COMPS:CAM:1,2013-12-04T06:54:00Z,27.7650,-82.6490,92.61,1111122 
COMPS,ioos:station:USF.COMPS:CAM:1,2013-12-04T07:00:00Z,27.7650,-82.6490,92.82,1111122 
COMPS,ioos:station:USF.COMPS:CAM:1,2013-12-04T07:06:00Z,27.7650,-82.6490,92.94,1111122 
COMPS,ioos:station:USF.COMPS:CAM:1,2013-12-04T07:12:00Z,27.7650,-82.6490,93.04,1111122 
COMPS,ioos:station:USF.COMPS:CAM:1,2013-12-04T07:18:00Z,27.7650,-82.6490,93.13,1111122 
COMPS,ioos:station:USF.COMPS:CAM:1,2013-12-04T07:24:00Z,27.7650,-82.6490,93.21,1111122 
COMPS,ioos:station:USF.COMPS:CAM:1,2013-12-04T07:30:00Z,27.7650,-82.6490,93.37,1111122 
COMPS,ioos:station:USF.COMPS:CAM:1,2013-12-04T07:36:00Z,27.7650,-82.6490,93.47,1111122 
COMPS,ioos:station:USF.COMPS:CAM:1,2013-12-04T07:42:00Z,27.7650,-82.6490,93.5,1111122 
COMPS,ioos:station:USF.COMPS:CAM:1,2013-12-04T07:48:00Z,27.7650,-82.6490,93.61,1111122 
COMPS,ioos:station:USF.COMPS:CAM:1,2013-12-04T07:54:00Z,27.7650,-82.6490,93.68,1111122 
COMPS,ioos:station:USF.COMPS:CAM:1,2013-12-04T08:00:00Z,27.7650,-82.6490,93.75,1111122 
COMPS,ioos:station:USF.COMPS:CAM:1,2013-12-04T08:06:00Z,27.7650,-82.6490,93.75,1111122 
COMPS,ioos:station:USF.COMPS:CAM:1,2013-12-04T08:12:00Z,27.7650,-82.6490,93.88,1111122 
COMPS,ioos:station:USF.COMPS:CAM:1,2013-12-04T08:18:00Z,27.7650,-82.6490,93.95,1111122 
COMPS,ioos:station:USF.COMPS:CAM:1,2013-12-04T08:24:00Z,27.7650,-82.6490,94.1,1111122 
COMPS,ioos:station:USF.COMPS:CAM:1,2013-12-04T08:30:00Z,27.7650,-82.6490,94.15,1111122 
COMPS,ioos:station:USF.COMPS:CAM:1,2013-12-04T08:36:00Z,27.7650,-82.6490,94.29,1111122 
COMPS,ioos:station:USF.COMPS:CAM:1,2013-12-04T08:42:00Z,27.7650,-82.6490,94.46,1111122 
COMPS,ioos:station:USF.COMPS:CAM:1,2013-12-04T08:48:00Z,27.7650,-82.6490,94.49,1111122 
COMPS,ioos:station:USF.COMPS:CAM:1,2013-12-04T08:54:00Z,27.7650,-82.6490,94.36,1111122 
COMPS,ioos:station:USF.COMPS:CAM:1,2013-12-04T09:00:00Z,27.7650,-82.6490,94.46,1111122 
COMPS,ioos:station:USF.COMPS:CAM:1,2013-12-04T09:06:00Z,27.7650,-82.6490,94.49,1111122 
COMPS,ioos:station:USF.COMPS:CAM:1,2013-12-04T09:12:00Z,27.7650,-82.6490,94.59,1111122 
COMPS,ioos:station:USF.COMPS:CAM:1,2013-12-04T09:18:00Z,27.7650,-82.6490,94.8,1111122 
COMPS,ioos:station:USF.COMPS:CAM:1,2013-12-04T09:24:00Z,27.7650,-82.6490,94.77,1111122 
COMPS,ioos:station:USF.COMPS:CAM:1,2013-12-04T09:30:00Z,27.7650,-82.6490,94.84,1111122 
COMPS,ioos:station:USF.COMPS:CAM:1,2013-12-04T09:36:00Z,27.7650,-82.6490,94.86,1111122 
COMPS,ioos:station:USF.COMPS:CAM:1,2013-12-04T09:42:00Z,27.7650,-82.6490,94.93,1111122 
COMPS,ioos:station:USF.COMPS:CAM:1,2013-12-04T09:48:00Z,27.7650,-82.6490,94.95,1111122 
COMPS,ioos:station:USF.COMPS:CAM:1,2013-12-04T09:54:00Z,27.7650,-82.6490,94.95,1111122 
COMPS,ioos:station:USF.COMPS:CAM:1,2013-12-04T10:00:00Z,27.7650,-82.6490,94.92,1111122 
COMPS,ioos:station:USF.COMPS:CAM:1,2013-12-04T10:06:00Z,27.7650,-82.6490,94.94,1111122 
COMPS,ioos:station:USF.COMPS:CAM:1,2013-12-04T10:12:00Z,27.7650,-82.6490,94.96,1111122 
COMPS,ioos:station:USF.COMPS:CAM:1,2013-12-04T10:18:00Z,27.7650,-82.6490,95.04,1111122 
COMPS,ioos:station:USF.COMPS:CAM:1,2013-12-04T10:24:00Z,27.7650,-82.6490,95.03,1111122 
COMPS,ioos:station:USF.COMPS:CAM:1,2013-12-04T10:30:00Z,27.7650,-82.6490,95.26,1111122 
COMPS,ioos:station:USF.COMPS:CAM:1,2013-12-04T10:36:00Z,27.7650,-82.6490,95.23,1111122 
COMPS,ioos:station:USF.COMPS:CAM:1,2013-12-04T10:42:00Z,27.7650,-82.6490,95.34,1111122 
COMPS,ioos:station:USF.COMPS:CAM:1,2013-12-04T10:48:00Z,27.7650,-82.6490,95.34,1111122 
COMPS,ioos:station:USF.COMPS:CAM:1,2013-12-04T10:54:00Z,27.7650,-82.6490,95.42,1111122 
COMPS,ioos:station:USF.COMPS:CAM:1,2013-12-04T11:00:00Z,27.7650,-82.6490,95.42,1111122 
COMPS,ioos:station:USF.COMPS:CAM:1,2013-12-04T11:06:00Z,27.7650,-82.6490,95.52,1111122 
COMPS,ioos:station:USF.COMPS:CAM:1,2013-12-04T11:12:00Z,27.7650,-82.6490,95.6,1111122 
COMPS,ioos:station:USF.COMPS:CAM:1,2013-12-04T11:18:00Z,27.7650,-82.6490,95.65,1111122 
COMPS,ioos:station:USF.COMPS:CAM:1,2013-12-04T11:24:00Z,27.7650,-82.6490,95.67,1111122 
COMPS,ioos:station:USF.COMPS:CAM:1,2013-12-04T11:30:00Z,27.7650,-82.6490,95.72,1111122 
COMPS,ioos:station:USF.COMPS:CAM:1,2013-12-04T11:36:00Z,27.7650,-82.6490,95.77,1111122 
COMPS,ioos:station:USF.COMPS:CAM:1,2013-12-04T11:42:00Z,27.7650,-82.6490,95.73,1111122 
COMPS,ioos:station:USF.COMPS:CAM:1,2013-12-04T11:48:00Z,27.7650,-82.6490,95.8,1111122 
COMPS,ioos:station:USF.COMPS:CAM:1,2013-12-04T11:54:00Z,27.7650,-82.6490,95.71,1111122 
COMPS,ioos:station:USF.COMPS:CAM:1,2013-12-04T12:00:00Z,27.7650,-82.6490,95.95,1111122 
COMPS,ioos:station:USF.COMPS:CAM:1,2013-12-04T12:06:00Z,27.7650,-82.6490,95.81,1111122 
COMPS,ioos:station:USF.COMPS:CAM:1,2013-12-04T12:12:00Z,27.7650,-82.6490,95.89,1111122 
COMPS,ioos:station:USF.COMPS:CAM:1,2013-12-04T12:18:00Z,27.7650,-82.6490,95.91,1111122 
COMPS,ioos:station:USF.COMPS:CAM:1,2013-12-04T12:24:00Z,27.7650,-82.6490,96.1,1111122 
COMPS,ioos:station:USF.COMPS:CAM:1,2013-12-04T12:30:00Z,27.7650,-82.6490,96.07,1111122 
COMPS,ioos:station:USF.COMPS:CAM:1,2013-12-04T12:36:00Z,27.7650,-82.6490,96.11,1111122 
COMPS,ioos:station:USF.COMPS:CAM:1,2013-12-04T12:42:00Z,27.7650,-82.6490,96.0,1111122 
COMPS,ioos:station:USF.COMPS:CAM:1,2013-12-04T12:48:00Z,27.7650,-82.6490,96.02,1111122 
COMPS,ioos:station:USF.COMPS:CAM:1,2013-12-04T12:54:00Z,27.7650,-82.6490,95.95,1111122 
COMPS,ioos:station:USF.COMPS:CAM:1,2013-12-04T13:00:00Z,27.7650,-82.6490,95.74,1111122 
COMPS,ioos:station:USF.COMPS:CAM:1,2013-12-04T13:06:00Z,27.7650,-82.6490,95.58,1111122 
COMPS,ioos:station:USF.COMPS:CAM:1,2013-12-04T13:12:00Z,27.7650,-82.6490,95.34,1111122 
COMPS,ioos:station:USF.COMPS:CAM:1,2013-12-04T13:18:00Z,27.7650,-82.6490,95.41,1111122 
COMPS,ioos:station:USF.COMPS:CAM:1,2013-12-04T13:24:00Z,27.7650,-82.6490,94.99,1111122 
COMPS,ioos:station:USF.COMPS:CAM:1,2013-12-04T13:30:00Z,27.7650,-82.6490,94.82,1111122 
COMPS,ioos:station:USF.COMPS:CAM:1,2013-12-04T13:36:00Z,27.7650,-82.6490,94.33,1111122 
COMPS,ioos:station:USF.COMPS:CAM:1,2013-12-04T13:42:00Z,27.7650,-82.6490,93.75,1111122 
COMPS,ioos:station:USF.COMPS:CAM:1,2013-12-04T13:48:00Z,27.7650,-82.6490,92.73,1111122 
COMPS,ioos:station:USF.COMPS:CAM:1,2013-12-04T13:54:00Z,27.7650,-82.6490,91.54,1111122 
COMPS,ioos:station:USF.COMPS:CAM:1,2013-12-04T14:00:00Z,27.7650,-82.6490,90.29,1111122 
COMPS,ioos:station:USF.COMPS:CAM:1,2013-12-04T14:06:00Z,27.7650,-82.6490,89.37,1111122 
COMPS,ioos:station:USF.COMPS:CAM:1,2013-12-04T14:12:00Z,27.7650,-82.6490,88.07,1111122 
COMPS,ioos:station:USF.COMPS:CAM:1,2013-12-04T14:18:00Z,27.7650,-82.6490,87.21,1111122 
COMPS,ioos:station:USF.COMPS:CAM:1,2013-12-04T14:24:00Z,27.7650,-82.6490,85.65,1111122 
COMPS,ioos:station:USF.COMPS:CAM:1,2013-12-04T14:30:00Z,27.7650,-82.6490,85.28,1111122 
COMPS,ioos:station:USF.COMPS:CAM:1,2013-12-04T14:36:00Z,27.7650,-82.6490,84.29,1111122 
COMPS,ioos:station:USF.COMPS:CAM:1,2013-12-04T14:42:00Z,27.7650,-82.6490,83.83,1111122 
COMPS,ioos:station:USF.COMPS:CAM:1,2013-12-04T14:48:00Z,27.7650,-82.6490,82.53,1111122 
COMPS,ioos:station:USF.COMPS:CAM:1,2013-12-04T14:54:00Z,27.7650,-82.6490,80.79,1111122 
COMPS,ioos:station:USF.COMPS:CAM:1,2013-12-04T15:00:00Z,27.7650,-82.6490,80.03,1111122 
COMPS,ioos:station:USF.COMPS:CAM:1,2013-12-04T15:06:00Z,27.7650,-82.6490,79.73,1111122 
COMPS,ioos:station:USF.COMPS:CAM:1,2013-12-04T15:12:00Z,27.7650,-82.6490,80.17,1111122 
COMPS,ioos:station:USF.COMPS:CAM:1,2013-12-04T15:18:00Z,27.7650,-82.6490,80.35,1111122 
COMPS,ioos:station:USF.COMPS:CAM:1,2013-12-04T15:24:00Z,27.7650,-82.6490,79.46,1111122 
COMPS,ioos:station:USF.COMPS:CAM:1,2013-12-04T15:30:00Z,27.7650,-82.6490,78.13,1111122 
COMPS,ioos:station:USF.COMPS:CAM:1,2013-12-04T15:36:00Z,27.7650,-82.6490,77.58,1111122 
COMPS,ioos:station:USF.COMPS:CAM:1,2013-12-04T15:42:00Z,27.7650,-82.6490,77.86,1111122 
COMPS,ioos:station:USF.COMPS:CAM:1,2013-12-04T15:48:00Z,27.7650,-82.6490,77.85,1111122 
COMPS,ioos:station:USF.COMPS:CAM:1,2013-12-04T15:54:00Z,27.7650,-82.6490,77.93,1111122 
COMPS,ioos:station:USF.COMPS:CAM:1,2013-12-04T16:00:00Z,27.7650,-82.6490,76.4,1111122 
COMPS,ioos:station:USF.COMPS:CAM:1,2013-12-04T16:06:00Z,27.7650,-82.6490,74.59,1111122 
COMPS,ioos:station:USF.COMPS:CAM:1,2013-12-04T16:12:00Z,27.7650,-82.6490,73.8,1111122 
COMPS,ioos:station:USF.COMPS:CAM:1,2013-12-04T16:18:00Z,27.7650,-82.6490,73.25,1111122 
COMPS,ioos:station:USF.COMPS:CAM:1,2013-12-04T16:24:00Z,27.7650,-82.6490,71.47,1111122 
COMPS,ioos:station:USF.COMPS:CAM:1,2013-12-04T16:30:00Z,27.7650,-82.6490,70.59,1111122 
COMPS,ioos:station:USF.COMPS:CAM:1,2013-12-04T16:36:00Z,27.7650,-82.6490,69.57,1111122 
COMPS,ioos:station:USF.COMPS:CAM:1,2013-12-04T16:42:00Z,27.7650,-82.6490,68.85,1111122 
COMPS,ioos:station:USF.COMPS:CAM:1,2013-12-04T16:48:00Z,27.7650,-82.6490,68.4,1111122 
COMPS,ioos:station:USF.COMPS:CAM:1,2013-12-04T16:54:00Z,27.7650,-82.6490,67.46,1111122 
COMPS,ioos:station:USF.COMPS:CAM:1,2013-12-04T17:00:00Z,27.7650,-82.6490,66.37,1111122 
COMPS,ioos:station:USF.COMPS:CAM:1,2013-12-04T17:06:00Z,27.7650,-82.6490,65.85,1111122 
COMPS,ioos:station:USF.COMPS:CAM:1,2013-12-04T17:12:00Z,27.7650,-82.6490,65.9,1111122 
COMPS,ioos:station:USF.COMPS:CAM:1,2013-12-04T17:18:00Z,27.7650,-82.6490,66.48,1111122 
COMPS,ioos:station:USF.COMPS:CAM:1,2013-12-04T17:24:00Z,27.7650,-82.6490,67.28,1111122 
COMPS,ioos:station:USF.COMPS:CAM:1,2013-12-04T17:30:00Z,27.7650,-82.6490,67.2,1111122 
COMPS,ioos:station:USF.COMPS:CAM:1,2013-12-04T17:36:00Z,27.7650,-82.6490,65.95,1111122 
COMPS,ioos:station:USF.COMPS:CAM:1,2013-12-04T17:42:00Z,27.7650,-82.6490,65.12,1111122 
COMPS,ioos:station:USF.COMPS:CAM:1,2013-12-04T17:48:00Z,27.7650,-82.6490,65.02,1111122 
COMPS,ioos:station:USF.COMPS:CAM:1,2013-12-04T17:54:00Z,27.7650,-82.6490,65.63,1111122 
COMPS,ioos:station:USF.COMPS:CAM:1,2013-12-04T18:00:00Z,27.7650,-82.6490,64.98,1111122 
COMPS,ioos:station:USF.COMPS:CAM:1,2013-12-04T18:06:00Z,27.7650,-82.6490,64.45,1111122 
COMPS,ioos:station:USF.COMPS:CAM:1,2013-12-04T18:12:00Z,27.7650,-82.6490,63.13,1111122 
COMPS,ioos:station:USF.COMPS:CAM:1,2013-12-04T18:18:00Z,27.7650,-82.6490,63.12,1111122 
COMPS,ioos:station:USF.COMPS:CAM:1,2013-12-04T18:24:00Z,27.7650,-82.6490,62.81,1111122 
COMPS,ioos:station:USF.COMPS:CAM:1,2013-12-04T18:30:00Z,27.7650,-82.6490,62.62,1111122 
COMPS,ioos:station:USF.COMPS:CAM:1,2013-12-04T18:36:00Z,27.7650,-82.6490,63.06,1111122 
COMPS,ioos:station:USF.COMPS:CAM:1,2013-12-04T18:42:00Z,27.7650,-82.6490,63.47,1111122 
COMPS,ioos:station:USF.COMPS:CAM:1,2013-12-04T18:48:00Z,27.7650,-82.6490,62.93,1111122 
COMPS,ioos:station:USF.COMPS:CAM:1,2013-12-04T18:54:00Z,27.7650,-82.6490,62.43,1111122 
COMPS,ioos:station:USF.COMPS:CAM:1,2013-12-04T19:00:00Z,27.7650,-82.6490,62.19,1111122 
COMPS,ioos:station:USF.COMPS:CAM:1,2013-12-04T19:06:00Z,27.7650,-82.6490,62.59,1111122 